Wetbulb
35.15 37.64 36.88 37.02 35.66 35.18 33.96 34.62 32.49 34.79 34.69 37.81 39.79 40.25 40.71 41.54 41.98 41.25 40.71 39.44 38.20 36.84 36.46 36.93 37.00 36.96 36.57 35.90 36.12 36.18 34.83 34.13 34.42 34.00 34.40 34.14 33.02 30.94 30.57 30.53 30.11 30.00 29.17 28.77
32.64 36.96 36.76 35.12 36.24 36.37 35.55 35.07 35.93 34.88 35.03 39.97 39.87 40.98 40.74 41.70 42.03 41.16 40.05 38.29 37.71 37.24 36.61 35.97 35.32 34.71 34.77 34.32 34.49 34.98 34.08 33.77 34.03 33.43 32.48 30.70 29.00 28.28 27.71 27.30 27.65 28.22 27.60 27.99
29.12 34.79 35.02 29.66 35.85 35.71 36.04 37.20 37.43 33.44 38.33 39.02 38.88 40.31 41.04 41.55 42.39 41.19 39.26 38.08 37.57 36.92 35.91 34.92 34.15 34.44 33.03 33.34 34.51 34.32 33.38 33.09 32.33 31.06 29.28 28.32 27.78 26.49 25.64 25.50 26.37 26.46 26.54 27.13
26.80 30.84 21.35 35.44 39.33 40.09 38.88 39.20 39.19 38.09 38.76 40.77 40.41 40.89 42.11 43.70 42.39 41.07 38.94 38.12 37.08 35.88 34.38 33.27 33.00 32.83 33.03 33.92 33.71 32.55 30.94 30.22 30.00 29.17 27.72 26.71 25.77 24.85 24.54 24.94 25.23 25.33 25.90 26.46
25.09 27.50 31.21 34.72 39.15 37.97 37.00 37.51 40.35 40.67 39.29 39.38 39.28 39.65 38.10 43.52 43.67 41.53 39.62 38.32 36.62 35.57 33.50 32.67 32.47 32.45 31.76 30.69 30.40 30.02 29.10 28.87 28.81 28.10 26.42 25.57 24.25 23.11 23.14 23.71 24.54 24.94 26.13 25.16
26.81 24.12 23.45 33.41 39.59 42.03 40.57 32.58 40.81 40.88 39.01 38.28 39.33 34.68 37.47 42.42 42.35 39.68 38.54 36.83 34.73 33.47 32.99 32.02 31.50 31.83 30.53 28.94 28.70 28.28 28.58 28.37 28.28 27.40 26.00 24.55 23.37 22.82 23.05 22.80 24.79 25.78 24.87 24.10
26.09 26.35 30.60 37.88 40.68 41.88 32.54 34.24 39.59 40.75 39.70 39.78 39.21 39.55 39.93 42.41 39.46 38.52 36.85 35.04 34.11 33.24 32.02 31.15 31.14 31.01 28.82 28.11 27.40 28.53 28.85 28.29 27.51 26.09 25.53 24.59 23.69 22.86 21.86 22.42 23.70 23.25 23.57 22.87
27.16 23.27 25.23 41.08 39.42 37.47 39.49 39.39 40.29 40.85 40.57 40.41 37.61 39.14 41.08 40.07 37.29 35.95 34.14 33.31 33.29 31.47 30.15 30.37 30.32 30.13 27.66 26.74 27.84 28.59 27.85 26.82 25.70 25.07 26.46 25.38 23.16 22.41 23.38 21.95 21.36 21.27 21.69 21.59
33.69 32.13 39.90 40.61 40.72 41.12 42.11 41.96 41.13 40.81 40.43 39.20 38.21 38.27 38.83 36.85 35.70 34.78 33.85 32.77 32.44 30.63 28.73 28.38 28.51 29.47 27.12 26.41 27.81 27.41 25.46 24.61 24.48 25.00 25.23 24.77 23.12 21.97 22.29 21.45 21.03 21.38 22.40 20.77
35.60 37.84 40.07 42.56 42.81 43.04 42.00 41.96 42.03 41.70 40.61 40.77 38.19 38.21 36.96 35.89 34.92 33.97 32.83 31.68 30.94 29.44 28.02 26.22 26.94 27.78 27.99 27.84 27.66 26.04 24.48 24.13 23.91 23.25 23.28 23.16 24.15 24.27 22.73 21.44 20.69 21.99 21.42 20.93
37.13 40.11 41.72 41.53 41.68 42.80 43.22 42.15 41.78 41.20 40.34 39.87 38.71 37.24 36.57 35.32 34.48 33.06 31.95 30.73 30.34 29.34 27.89 26.38 26.67 26.73 27.61 27.49 26.78 25.13 24.50 24.49 23.94 23.93 22.64 22.53 23.20 22.72 23.37 23.23 23.45 22.09 21.39 20.54
35.89 39.78 39.34 39.96 42.66 43.39 42.62 41.96 41.65 40.62 39.07 39.49 39.52 37.28 37.05 35.18 34.16 32.42 30.19 29.92 28.91 27.96 26.90 25.91 26.47 26.05 26.15 26.66 25.73 24.46 24.01 23.52 23.11 22.00 21.14 21.25 21.07 22.09 27.03 26.97 28.68 29.14 27.84 22.60
41.79 43.15 40.32 41.74 43.18 43.75 42.51 42.14 41.52 40.69 39.80 38.63 38.29 37.83 36.55 34.00 32.95 32.25 30.27 29.41 27.91 26.90 26.76 26.12 25.62 24.98 25.43 25.27 25.01 24.06 22.65 23.07 22.71 22.54 21.01 19.97 20.22 20.87 19.70 23.23 27.07 28.46 26.49 25.27
42.62 40.58 40.34 42.99 41.28 43.41 43.29 41.55 42.49 40.96 40.01 39.17 38.02 37.38 35.37 32.91 31.57 30.29 29.14 29.11 28.13 26.92 25.97 25.59 24.87 24.58 25.27 25.01 24.65 22.99 22.35 21.93 20.96 19.82 19.85 19.75 19.08 20.19 20.16 20.21 18.98 21.50 23.74 23.25
39.44 40.79 41.28 43.06 45.31 43.90 41.80 40.15 39.57 39.80 38.22 37.40 37.26 35.52 33.51 31.03 30.23 29.64 29.15 28.32 27.22 26.21 25.65 25.53 24.86 24.54 25.21 25.21 24.04 22.75 21.93 19.51 19.72 20.03 20.37 20.26 20.29 19.89 19.99 19.83 19.10 18.57 19.44 19.77
40.54 42.56 43.29 42.77 43.76 44.63 42.26 40.82 40.64 39.57 38.84 37.92 35.52 33.78 32.98 32.45 30.77 28.72 28.01 27.38 25.62 24.32 25.05 24.18 23.86 25.02 25.66 24.70 23.31 22.39 21.72 21.16 20.28 20.20 20.44 19.61 19.38 18.96 19.30 18.20 17.71 16.93 17.12 17.33
39.03 38.93 40.35 41.69 42.69 41.44 42.10 41.72 41.29 38.93 38.61 37.00 35.06 33.92 32.52 30.52 28.02 26.83 26.56 27.28 27.55 26.31 25.73 25.30 24.49 25.40 25.31 24.53 22.87 21.18 20.66 20.84 20.22 20.20 19.93 19.20 18.58 18.09 17.45 16.85 17.23 17.08 17.38 18.11
39.67 42.39 41.77 40.78 41.14 40.14 40.47 42.16 40.40 38.94 37.99 36.86 34.04 33.07 30.11 28.35 27.49 26.46 26.17 26.35 25.33 24.35 25.24 24.80 24.63 24.63 24.32 23.23 22.15 21.47 20.48 21.05 20.37 20.10 19.53 18.41 17.39 17.81 17.73 17.69 17.63 17.12 17.07 18.27
38.93 38.66 39.16 39.36 39.87 39.52 40.25 39.70 39.19 39.79 36.11 34.38 32.35 30.38 30.31 29.41 27.76 26.54 25.98 24.67 23.46 23.20 22.66 23.83 24.49 23.36 22.51 22.47 21.60 21.40 20.40 20.50 19.49 18.48 18.85 17.99 17.72 17.25 16.58 16.45 17.53 17.17 16.58 16.62
37.47 38.00 38.22 38.37 39.37 40.01 40.03 40.37 39.34 37.47 36.03 34.16 31.99 30.42 28.91 27.89 26.97 25.21 25.98 24.90 25.94 25.37 23.69 23.29 22.94 22.51 22.03 22.58 21.80 20.88 20.63 20.07 19.00 18.49 18.32 17.32 16.99 16.15 16.00 14.54 15.17 15.71 14.38 14.04
35.72 35.73 35.07 35.01 35.51 36.69 38.23 37.45 36.07 35.01 34.13 32.87 31.59 30.52 28.83 27.01 26.25 25.84 24.67 22.89 23.52 23.67 23.30 21.91 21.81 21.10 21.58 20.60 20.49 20.58 20.08 19.20 18.30 17.22 16.83 15.96 14.36 14.91 14.39 13.96 13.81 13.35 11.31 10.33
34.94 32.21 30.52 30.91 31.92 33.11 34.44 36.10 36.37 33.66 32.53 31.82 31.68 29.66 26.17 25.43 25.27 25.67 26.44 24.59 23.53 22.42 22.15 21.15 20.63 20.28 19.77 19.99 19.90 19.62 18.91 18.53 17.04 16.59 15.06 13.63 13.09 10.50 9.57 9.79 8.16 10.03 8.36 5.54
32.92 31.29 30.55 29.27 30.12 31.99 32.05 32.42 32.78 32.84 31.71 31.27 29.10 27.34 27.01 26.37 26.72 24.11 20.22 23.51 22.59 22.20 20.92 19.52 19.71 19.65 19.48 19.95 19.57 18.86 17.44 16.24 15.44 15.34 14.13 12.16 10.47 7.39 9.19 8.07 7.45 7.64 1.21 4.02
30.63 29.77 29.40 30.27 27.89 27.57 27.36 29.96 30.88 31.29 31.84 30.42 29.50 29.10 27.37 26.43 25.15 24.62 23.91 23.25 21.93 20.29 19.78 18.79 19.65 19.85 19.34 18.61 17.83 16.49 15.75 15.24 14.50 13.76 12.51 8.28 7.06 6.88 6.48 2.95 4.75 5.22 3.58 2.15
29.52 28.93 28.39 27.76 29.21 28.56 29.04 29.23 27.91 28.04 28.00 28.00 28.79 28.32 29.11 28.66 25.53 22.88 22.61 21.06 19.99 19.08 18.76 19.11 19.24 18.19 17.95 16.89 15.81 15.07 14.35 13.94 12.33 11.90 10.57 7.00 6.31 3.37 2.25 4.58 1.53 0.45 -0.66 0.24
29.08 28.62 28.57 28.40 28.62 27.46 28.18 27.96 26.29 26.88 26.79 25.86 26.42 26.56 25.67 23.92 22.91 21.23 20.65 20.13 19.02 18.28 18.19 17.68 17.67 16.94 16.36 15.41 14.49 13.54 13.10 12.07 11.00 10.53 8.32 6.59 6.77 5.36 2.55 4.08 -0.06 -1.13 -6.04 -7.49
30.65 29.22 27.83 27.22 27.76 27.35 28.99 28.06 26.42 24.96 26.38 25.81 22.80 23.30 22.23 21.82 20.47 19.52 18.69 18.10 17.88 17.40 17.12 16.50 16.40 15.89 15.23 14.75 13.77 12.75 12.40 11.69 10.07 9.32 6.79 4.86 5.03 -0.03 -2.51 -3.05 -5.00 -7.16 -7.15 -8.22
MSLP
1014.25 1013.96 1014.27 1014.39 1014.92 1015.73 1016.60 1016.57 1017.15 1016.45 1016.66 1015.90 1016.02 1017.02 1018.03 1019.13 1020.18 1021.02 1021.78 1022.50 1023.13 1023.63 1024.03 1024.56 1024.92 1025.31 1025.95 1026.41 1027.02 1027.65 1028.24 1029.05 1029.94 1030.72 1031.28 1031.80 1032.41 1033.17 1033.56 1033.84 1034.21 1034.53 1034.89 1035.17
1014.83 1014.27 1014.38 1014.33 1014.23 1014.77 1015.28 1015.67 1015.83 1015.89 1015.79 1015.11 1015.62 1016.72 1018.28 1019.12 1020.01 1020.90 1021.75 1022.63 1023.40 1023.99 1024.44 1025.17 1025.46 1025.87 1026.61 1027.10 1027.72 1028.22 1028.91 1029.75 1030.58 1031.20 1031.86 1032.55 1033.23 1033.78 1034.14 1034.53 1034.76 1034.85 1035.16 1035.36
1015.68 1014.79 1014.69 1014.50 1013.73 1013.84 1014.34 1014.35 1014.53 1015.14 1014.34 1015.02 1015.82 1016.35 1017.08 1018.18 1019.20 1020.29 1021.41 1022.41 1023.20 1023.87 1024.56 1025.36 1025.77 1026.30 1027.03 1027.70 1028.26 1028.85 1029.57 1030.46 1031.21 1031.89 1032.63 1033.26 1033.70 1034.21 1034.64 1034.92 1035.10 1035.32 1035.54 1035.57
1016.80 1015.88 1014.64 1012.96 1012.26 1012.33 1012.94 1012.95 1013.35 1013.54 1013.76 1014.04 1014.54 1014.95 1015.97 1017.14 1018.35 1019.78 1020.97 1022.11 1023.03 1023.79 1024.74 1025.62 1026.16 1026.82 1027.45 1028.07 1028.77 1029.43 1030.26 1031.00 1031.64 1032.24 1033.01 1033.60 1034.00 1034.45 1034.83 1035.12 1035.27 1035.44 1035.63 1035.70
1017.75 1016.60 1014.57 1012.82 1012.06 1011.90 1012.25 1012.00 1012.31 1012.74 1013.58 1014.36 1015.18 1015.76 1016.53 1016.90 1017.89 1018.96 1020.32 1021.71 1022.84 1023.78 1024.75 1025.72 1026.39 1027.16 1027.80 1028.63 1029.32 1029.95 1030.69 1031.32 1031.88 1032.47 1033.21 1033.80 1034.29 1034.63 1034.98 1035.18 1035.38 1035.44 1035.60 1035.76
1018.18 1016.90 1014.65 1012.50 1010.95 1010.80 1011.12 1011.49 1011.09 1011.87 1013.08 1014.27 1015.17 1016.25 1015.34 1016.30 1017.54 1019.19 1020.50 1021.58 1022.92 1024.14 1025.09 1025.91 1026.82 1027.40 1028.10 1029.07 1029.79 1030.38 1030.94 1031.58 1032.12 1032.67 1033.26 1033.89 1034.37 1034.83 1035.19 1035.42 1035.44 1035.45 1035.66 1035.82
1017.52 1016.49 1014.02 1011.77 1010.95 1010.87 1011.23 1011.43 1010.76 1011.47 1012.63 1013.95 1014.65 1014.23 1014.48 1015.84 1017.73 1018.95 1020.22 1021.64 1023.09 1024.22 1025.12 1026.03 1026.87 1027.59 1028.51 1029.36 1030.10 1030.61 1031.23 1031.93 1032.56 1033.01 1033.44 1034.02 1034.56 1034.96 1035.30 1035.50 1035.62 1035.69 1035.74 1035.86
1016.59 1015.52 1013.48 1011.17 1011.09 1010.75 1010.07 1010.16 1010.75 1011.48 1012.34 1013.63 1014.31 1014.77 1015.31 1016.30 1017.64 1018.97 1020.35 1021.90 1023.19 1024.34 1025.47 1026.40 1027.06 1027.73 1028.80 1029.66 1030.27 1030.84 1031.54 1032.18 1032.82 1033.27 1033.67 1034.32 1034.74 1035.16 1035.40 1035.58 1035.69 1035.69 1035.74 1035.78
1014.77 1013.05 1011.55 1010.59 1009.89 1009.32 1009.49 1010.02 1010.64 1011.30 1012.19 1013.39 1014.56 1015.36 1016.00 1016.93 1017.95 1019.24 1020.42 1021.82 1023.04 1024.14 1025.53 1026.62 1027.27 1027.85 1028.88 1029.76 1030.39 1031.03 1031.68 1032.34 1032.91 1033.31 1033.72 1034.28 1034.77 1035.19 1035.53 1035.62 1035.70 1035.64 1035.61 1035.65
1013.99 1012.10 1011.61 1010.70 1010.17 1010.03 1009.67 1009.83 1010.21 1010.95 1012.06 1012.95 1014.21 1015.48 1016.43 1017.36 1018.34 1019.43 1020.71 1021.88 1023.07 1024.29 1025.46 1026.67 1027.43 1028.06 1028.61 1029.55 1030.25 1031.06 1031.80 1032.48 1032.99 1033.32 1033.73 1034.18 1034.65 1034.91 1035.21 1035.48 1035.58 1035.51 1035.49 1035.48
1014.46 1012.57 1011.38 1010.94 1010.47 1010.55 1010.20 1010.21 1010.62 1011.21 1011.87 1012.79 1013.97 1015.44 1016.17 1017.22 1018.30 1019.47 1020.66 1022.07 1023.05 1024.08 1025.37 1026.58 1027.40 1028.27 1028.93 1029.64 1030.34 1031.13 1031.81 1032.35 1032.83 1033.24 1033.68 1034.15 1034.52 1034.75 1034.90 1035.10 1035.21 1035.23 1035.26 1035.39
1014.97 1014.14 1013.36 1012.15 1011.66 1011.02 1010.41 1010.56 1010.73 1011.06 1012.26 1012.92 1013.44 1014.62 1016.07 1017.26 1018.15 1019.13 1020.48 1021.86 1023.26 1024.43 1025.59 1026.76 1027.57 1028.38 1029.17 1029.80 1030.38 1031.09 1031.93 1032.29 1032.68 1033.15 1033.62 1034.07 1034.51 1034.77 1034.63 1034.67 1034.71 1034.66 1034.81 1035.28
1014.75 1014.34 1013.51 1012.54 1011.68 1011.41 1010.94 1010.41 1010.88 1011.42 1012.26 1012.30 1013.76 1014.42 1015.79 1017.15 1018.32 1019.36 1020.64 1021.70 1022.92 1024.17 1025.49 1026.68 1027.67 1028.60 1029.25 1029.84 1030.46 1031.04 1031.72 1032.39 1032.81 1033.19 1033.76 1034.04 1034.44 1034.84 1035.04 1034.98 1034.98 1034.95 1035.03 1035.05
1014.07 1013.78 1012.98 1012.31 1011.82 1011.47 1011.04 1010.61 1010.92 1011.17 1012.12 1013.13 1013.98 1014.80 1015.75 1017.21 1018.73 1019.56 1020.44 1021.58 1022.95 1024.30 1025.63 1026.68 1027.70 1028.66 1029.25 1029.80 1030.49 1031.21 1031.88 1032.47 1033.03 1033.32 1033.75 1034.11 1034.41 1034.79 1035.12 1035.24 1035.40 1035.56 1035.49 1035.47
1012.88 1012.54 1012.44 1011.96 1011.97 1011.77 1011.59 1011.28 1011.59 1011.69 1012.27 1013.36 1014.40 1015.00 1015.80 1017.22 1018.60 1019.67 1020.80 1021.99 1023.26 1024.56 1025.78 1026.83 1027.85 1028.84 1029.36 1029.91 1030.59 1031.40 1032.11 1032.70 1033.24 1033.62 1033.98 1034.31 1034.50 1034.76 1034.97 1035.20 1035.49 1035.71 1035.79 1035.77
1012.67 1012.27 1011.98 1012.12 1012.42 1011.90 1011.46 1011.58 1011.94 1012.43 1012.39 1013.30 1014.25 1015.57 1016.34 1017.45 1018.77 1019.95 1021.07 1021.94 1022.88 1024.39 1025.64 1026.69 1027.74 1028.59 1029.24 1029.90 1030.70 1031.48 1032.05 1032.57 1033.23 1033.66 1034.18 1034.58 1034.80 1034.96 1034.95 1035.20 1035.61 1035.92 1035.97 1035.99
1013.05 1012.61 1012.39 1012.06 1011.87 1011.50 1011.85 1011.68 1011.33 1012.11 1012.71 1013.46 1015.09 1016.10 1017.00 1018.01 1019.27 1020.48 1021.58 1022.47 1023.19 1024.23 1025.28 1026.29 1027.41 1028.42 1029.10 1029.80 1030.61 1031.44 1032.01 1032.68 1033.24 1033.77 1034.23 1034.70 1034.98 1035.15 1035.23 1035.46 1035.82 1036.05 1036.25 1036.31
1012.18 1012.13 1012.32 1012.22 1011.64 1011.44 1011.18 1010.91 1011.49 1012.12 1012.86 1013.51 1014.59 1015.83 1017.23 1018.26 1018.97 1020.32 1021.49 1022.62 1023.77 1024.90 1025.71 1026.48 1027.40 1028.42 1029.17 1029.86 1030.61 1031.43 1032.07 1032.70 1033.35 1033.81 1034.18 1034.74 1035.22 1035.36 1035.45 1035.49 1035.95 1036.26 1036.46 1036.45
1011.59 1011.69 1011.79 1011.67 1011.34 1011.15 1010.96 1010.89 1011.24 1011.85 1012.52 1013.67 1014.95 1016.27 1016.91 1018.33 1019.53 1020.48 1021.54 1022.71 1023.75 1024.74 1025.98 1026.64 1027.50 1028.26 1029.09 1029.90 1030.65 1031.33 1032.07 1032.83 1033.46 1033.99 1034.38 1034.83 1035.45 1035.74 1035.77 1035.72 1036.00 1036.42 1036.66 1036.69
1012.46 1012.47 1012.00 1011.54 1011.13 1010.76 1010.39 1010.47 1010.93 1011.42 1012.07 1013.46 1014.89 1016.54 1017.53 1018.18 1019.31 1020.60 1021.45 1022.27 1023.02 1023.90 1025.40 1026.50 1027.45 1028.37 1029.20 1030.00 1030.65 1031.23 1031.96 1032.65 1033.35 1034.01 1034.50 1035.04 1035.62 1035.95 1036.00 1036.05 1036.37 1036.69 1037.04 1037.16
1012.82 1012.66 1012.38 1012.06 1011.42 1011.01 1010.46 1010.26 1010.55 1010.97 1011.98 1012.63 1014.42 1015.71 1016.83 1018.33 1019.34 1020.17 1021.55 1022.63 1023.77 1024.50 1025.44 1026.48 1027.26 1028.26 1029.15 1030.04 1030.63 1031.39 1032.11 1032.76 1033.40 1034.09 1034.61 1035.20 1035.83 1036.16 1036.20 1036.45 1036.86 1037.10 1037.50 1037.66
1013.26 1013.06 1012.67 1012.14 1011.63 1010.92 1010.20 1010.06 1010.07 1011.08 1011.65 1013.15 1014.24 1015.38 1016.69 1018.55 1019.50 1020.54 1021.23 1021.76 1023.30 1024.38 1025.46 1026.54 1027.43 1028.24 1029.14 1029.98 1030.70 1031.50 1032.29 1032.95 1033.63 1034.27 1034.89 1035.46 1036.02 1036.46 1036.62 1036.98 1037.40 1037.51 1037.85 1037.83
1013.66 1013.29 1012.84 1012.11 1011.61 1010.97 1010.20 1009.95 1010.24 1010.67 1011.47 1012.80 1013.98 1014.67 1015.95 1017.48 1018.44 1019.46 1021.21 1022.52 1023.45 1024.45 1025.49 1026.64 1027.69 1028.56 1029.40 1030.15 1030.93 1031.72 1032.45 1033.18 1033.84 1034.42 1035.08 1035.65 1036.20 1036.49 1036.85 1037.31 1037.67 1037.89 1038.11 1038.02
1013.15 1012.89 1012.67 1012.09 1011.47 1011.04 1010.71 1010.57 1010.85 1011.13 1011.67 1012.75 1014.07 1014.44 1015.36 1017.51 1019.46 1020.10 1020.90 1022.25 1022.95 1024.33 1025.54 1026.74 1027.64 1028.69 1029.56 1030.39 1031.21 1031.98 1032.73 1033.43 1034.06 1034.68 1035.28 1035.96 1036.37 1036.62 1037.09 1037.46 1037.77 1037.98 1038.21 1038.29
1013.20 1013.03 1012.76 1012.38 1012.01 1011.65 1011.48 1011.52 1011.81 1012.35 1012.87 1013.54 1014.46 1015.32 1015.70 1017.20 1018.10 1020.01 1020.92 1022.58 1023.50 1024.45 1025.84 1027.07 1028.00 1029.05 1029.86 1030.70 1031.48 1032.24 1032.91 1033.60 1034.19 1034.68 1035.35 1036.02 1036.38 1036.71 1037.27 1037.45 1037.93 1038.16 1038.31 1038.22
1013.05 1013.00 1012.83 1012.54 1012.21 1011.98 1011.94 1012.17 1012.56 1013.19 1013.50 1014.25 1015.32 1016.01 1016.85 1017.91 1018.77 1020.23 1021.77 1023.03 1024.03 1024.90 1026.01 1027.36 1028.35 1029.24 1030.13 1030.94 1031.69 1032.47 1033.11 1033.82 1034.32 1034.74 1035.37 1035.82 1036.01 1036.39 1037.03 1037.26 1037.78 1037.91 1038.22 1038.18
1012.55 1012.58 1012.38 1012.36 1012.34 1012.23 1012.21 1012.50 1013.02 1013.54 1014.10 1014.75 1015.62 1016.58 1017.87 1018.73 1019.62 1020.54 1022.10 1023.37 1024.56 1025.52 1026.54 1027.63 1028.56 1029.43 1030.24 1031.14 1031.89 1032.62 1033.23 1033.81 1034.27 1034.67 1035.26 1035.60 1035.86 1036.62 1037.23 1037.52 1037.82 1038.03 1037.85 1037.71
Wind_Speed
6 7 7 8 7 9 8 7 8 6 9 8 10 16 12 8 8 8 8 8 8 8 9 9 11 12 12 13 12 13 14 13 12 10 10 9 8 7 6 6 5 6 6 5
4 4 7 5 5 8 4 4 6 3 8 8 3 11 10 12 12 10 9 9 10 10 12 11 12 12 12 12 12 12 13 13 11 11 10 8 7 6 6 6 6 6 5 5
4 2 3 5 8 8 5 5 7 7 12 6 5 9 17 17 16 14 13 13 13 12 11 11 11 12 12 11 11 12 12 11 10 9 9 7 7 7 6 5 5 5 5 4
2 3 4 7 1 7 9 7 10 4 6 11 6 4 8 14 16 15 15 15 13 12 11 10 10 11 11 11 11 11 11 10 9 9 8 7 7 6 5 4 5 4 4 3
3 4 5 3 5 8 9 11 10 14 6 5 5 5 1 10 14 16 17 14 12 12 13 12 13 11 12 11 10 10 9 8 8 8 8 7 7 6 4 4 4 3 3 3
2 3 8 9 4 5 5 6 6 10 9 10 7 5 8 14 14 15 15 15 15 13 13 13 10 11 12 10 9 9 9 8 7 7 8 7 7 6 3 2 3 3 3 2
4 5 8 8 4 4 6 11 2 6 7 13 8 5 7 18 16 17 17 18 15 14 13 12 11 11 11 9 8 7 7 7 6 6 6 7 6 3 4 4 4 3 3 1
2 3 8 5 2 8 9 2 2 6 8 10 4 6 16 17 19 19 19 18 16 14 12 10 10 11 10 9 7 8 8 7 6 6 5 5 6 4 4 4 4 4 3 2
10 9 7 4 4 5 5 4 5 6 6 9 10 7 14 17 18 18 19 16 14 15 13 9 8 10 12 9 10 9 8 7 6 6 5 5 5 4 3 3 2 3 2 2
1 4 7 6 5 5 4 4 4 5 8 13 11 14 14 15 16 16 15 16 13 15 14 11 8 7 10 11 10 10 8 7 5 6 6 5 3 3 3 3 3 3 3 3
12 6 9 3 1 5 6 1 4 6 8 12 17 15 15 16 16 15 16 14 15 15 13 12 10 9 10 10 10 9 8 7 5 4 5 4 2 2 2 3 4 3 3 2
5 3 4 8 9 11 7 5 6 11 9 10 15 19 14 15 15 17 17 16 13 13 13 11 10 10 9 9 10 10 7 5 4 4 4 3 2 1 2 2 2 5 4 3
4 9 8 12 12 5 5 4 6 6 3 18 12 16 17 15 15 17 16 17 16 16 14 12 11 10 8 8 8 8 7 6 4 5 3 4 2 2 2 2 7 7 7 5
8 10 11 7 7 11 9 3 7 8 7 8 11 13 15 14 15 16 17 16 15 15 14 13 11 10 8 9 8 7 6 6 4 4 4 3 3 3 2 1 1 2 4 4
17 13 12 11 15 12 5 4 5 8 10 10 11 14 17 19 17 15 14 15 15 14 13 12 12 9 8 9 9 8 6 4 4 3 3 3 3 3 1 1 1 1 0 2
6 6 10 7 12 11 6 6 5 8 11 13 13 13 13 14 14 15 15 17 20 15 14 12 11 10 9 9 9 7 5 8 5 4 3 3 2 2 2 2 1 0 0 1
10 12 10 8 6 2 7 9 8 9 11 12 9 11 14 15 14 14 14 12 12 14 14 14 13 10 10 9 9 6 5 5 6 4 3 3 2 2 3 3 1 0 1 2
18 15 8 8 9 6 6 4 6 9 9 11 14 16 15 16 17 16 15 13 13 11 11 12 13 11 9 9 8 6 5 5 4 4 4 4 3 3 2 3 2 0 1 1
11 15 15 11 9 8 7 7 8 10 13 15 15 14 15 13 14 15 16 15 15 15 11 12 15 12 10 9 8 6 6 6 5 4 4 5 3 2 2 2 2 1 2 2
8 8 8 8 9 7 9 7 10 13 14 15 14 14 13 14 16 16 15 15 12 8 15 15 14 11 10 10 10 6 7 7 6 5 4 4 3 2 2 4 2 2 3 3
7 7 8 9 11 11 8 8 10 13 15 17 19 17 15 13 15 17 16 11 9 16 15 16 12 9 8 9 8 7 7 6 6 5 5 4 3 3 3 3 2 3 3 4
8 7 9 9 9 12 8 7 10 11 15 15 14 17 18 16 15 11 5 11 12 19 13 10 9 12 10 12 7 7 7 6 5 5 5 4 3 3 3 3 2 1 2 3
6 6 8 9 10 11 7 5 8 14 16 16 17 18 17 13 13 15 12 12 12 14 10 9 13 15 14 8 7 7 7 6 6 5 5 4 3 3 3 3 1 1 2 3
6 5 6 8 9 5 0 2 5 8 11 12 14 18 19 14 7 5 11 15 20 17 11 12 14 15 11 7 7 6 6 6 5 5 5 4 3 3 3 2 1 1 2 3
6 6 5 6 6 4 4 5 7 9 12 12 14 13 14 9 9 10 14 12 19 15 12 15 16 14 8 7 7 7 6 5 5 5 4 4 4 3 3 2 2 2 2 3
4 4 4 5 4 3 4 4 6 6 9 10 9 8 8 9 13 13 12 15 13 16 12 11 9 8 8 7 7 7 6 6 5 5 5 4 4 3 3 2 2 2 3 3
4 3 3 1 1 2 4 6 7 8 8 10 10 9 10 11 13 14 16 13 12 11 10 9 9 9 8 7 7 6 5 5 5 4 4 4 3 3 3 3 3 3 3 3
Wind_Direction
226 214 178 193 178 170 181 193 165 232 221 238 214 192 184 147 139 134 126 110 108 106 103 101 105 104 103 102 104 108 105 104 105 105 105 105 97 91 92 92 96 106 111 102
241 184 201 238 205 184 202 133 267 170 262 221 104 115 147 167 159 155 144 131 128 125 119 119 117 112 110 107 108 111 110 111 113 110 107 103 100 99 96 96 100 105 99 100
250 184 118 327 211 194 189 198 156 187 226 161 181 173 176 175 172 160 153 149 144 137 131 130 123 122 116 115 116 112 112 112 112 112 110 108 110 107 103 102 109 103 103 95
212 62 241 235 202 171 195 208 204 239 196 192 207 182 151 172 160 157 153 151 146 139 128 125 121 114 115 117 116 116 115 118 119 115 114 115 112 110 108 113 123 119 106 95
157 211 288 285 196 170 165 257 192 227 153 162 113 70 3 169 164 159 156 150 144 139 134 131 129 128 121 116 119 120 123 125 127 127 127 128 124 125 120 119 124 117 127 96
135 232 219 223 233 171 123 279 224 191 174 155 140 153 233 162 147 140 140 141 138 136 133 130 133 132 125 127 128 132 138 137 132 131 135 133 135 131 118 130 133 133 123 89
159 233 288 252 219 159 126 233 256 173 161 160 193 198 139 138 138 141 143 139 137 140 143 140 135 132 128 131 135 133 123 125 123 128 131 135 132 123 133 131 127 151 131 133
99 153 264 191 79 167 211 190 191 177 167 184 120 114 139 139 140 142 140 138 142 138 137 138 136 132 133 134 135 127 128 125 125 132 129 138 134 136 139 142 149 163 166 189
184 209 227 241 246 205 165 184 209 171 157 143 138 153 149 146 145 146 146 145 145 141 135 134 136 145 141 148 139 134 127 127 132 131 132 142 145 157 166 176 181 203 213 207
49 247 255 266 303 284 202 219 186 155 148 155 149 151 146 144 144 146 148 148 144 141 144 144 140 139 143 147 141 136 132 133 140 134 139 145 156 175 193 204 222 241 243 231
299 312 338 268 221 360 310 213 139 139 157 157 144 158 155 152 151 150 147 147 150 149 150 149 140 136 144 143 140 136 136 142 140 136 135 140 149 195 203 237 212 231 240 194
276 247 244 281 312 309 285 240 208 149 145 161 161 156 157 156 153 150 149 149 146 144 141 143 139 139 138 143 142 139 141 143 145 137 135 132 139 118 18 72 48 244 186 146
250 295 264 286 284 283 284 228 175 171 209 158 157 155 154 153 155 150 148 149 151 150 144 141 139 138 140 139 138 138 139 143 141 137 140 141 136 157 192 38 30 112 115 70
271 310 305 309 291 321 301 241 150 125 129 152 152 147 144 147 145 153 156 152 142 139 140 141 140 145 144 136 130 126 126 125 137 137 142 139 140 136 142 168 188 193 65 60
272 273 254 273 289 297 274 144 152 152 140 141 154 152 150 152 158 155 143 139 134 135 138 139 141 145 141 137 133 133 130 133 134 126 128 131 127 134 153 194 191 243 336 33
323 278 275 248 246 237 199 188 185 183 159 155 155 161 154 146 143 142 144 146 145 156 151 144 145 151 145 138 134 131 130 127 130 129 125 120 121 144 132 123 113 275 244 348
284 278 273 257 275 294 208 222 185 169 161 151 146 139 140 136 134 141 147 152 145 147 150 150 147 146 144 141 140 136 128 132 132 121 125 130 135 127 109 100 52 260 14 65
258 260 255 263 283 282 286 232 191 168 173 150 138 144 145 156 156 151 147 132 124 125 142 142 141 140 137 136 132 133 130 132 135 136 128 119 118 108 94 86 20 66 347 119
257 263 271 267 264 262 248 217 187 167 137 143 143 163 153 150 151 147 143 140 144 146 154 142 138 132 132 132 129 128 128 128 122 120 125 122 108 96 86 70 43 70 352 3
360 343 328 319 314 263 245 218 171 158 150 151 140 154 156 150 150 151 153 156 161 145 144 140 137 135 134 136 130 131 133 135 137 133 126 116 120 123 94 74 49 38 11 349
336 329 323 317 310 301 262 193 166 161 165 152 165 169 156 145 149 147 147 143 138 139 139 139 139 139 136 136 131 130 131 131 131 133 133 130 136 128 97 76 43 45 1 339
323 317 310 312 308 298 290 202 170 155 152 157 154 149 143 151 150 148 135 148 144 142 141 138 137 137 135 131 130 128 130 129 125 129 129 132 133 132 113 98 86 38 346 319
294 301 304 311 311 296 282 188 163 159 156 161 160 153 156 156 158 152 143 150 144 142 133 129 135 132 131 129 129 130 129 129 134 133 137 133 147 143 128 131 131 351 299 317
312 315 306 309 308 325 69 67 139 151 149 148 154 153 147 147 134 102 118 144 136 132 131 136 134 133 129 128 127 126 129 133 131 132 133 136 145 131 125 138 178 264 296 302
304 303 300 322 325 332 85 102 101 117 129 136 144 147 140 150 139 144 134 136 132 127 126 132 133 130 124 127 129 132 134 136 138 137 137 152 153 149 150 183 213 248 259 280
298 298 293 292 258 161 131 124 127 142 137 135 136 130 118 122 125 128 129 135 131 128 128 135 134 128 129 132 133 135 135 136 141 138 152 158 157 148 174 208 233 252 242 258
232 232 280 330 124 151 159 146 146 150 152 148 130 122 122 127 130 127 133 131 130 127 128 129 131 133 132 134 135 136 140 142 147 151 158 156 146 158 187 212 228 243 243 250